Location: Erlenbrunn
(49.1717°N, 7.6142°E)
Time: 09:46:22
(UTC+00:00)

H-2A R/B - Pass Details

Date: 25 November 2020
Orbit: 529 x 651 km, 98.3° (Epoch: 25 January)

Event Time Altitude Azimuth Distance (km) Brightness Sun altitude
Rises 16:52:49 0° 180° (S) 2,907 6.3 -11.9°
Reaches altitude 10° 16:55:07 10° 186° (S) 1,987 5.5 -12.3°
Maximum altitude 16:59:16 46° 260° (W) 825 3.7 -12.9°
Drops below altitude 10° 17:03:19 10° 334° (NNW) 1,933 5.2 -13.6°
Sets 17:05:32 0° 341° (NNW) 2,817 6.0 -13.9°
